Weather in Koutiala

Mali     12°23′19″N   5°27′47″W
temp.,
°C
wind,
m/s
gust,
m/s
humid.,
%
clouds,
%
prec.,
mm/h
press.,
hPa
HPBL,
m
28 january, fri
fri2800:00+24ene46135 0.0 101172
03:00+22e47142 0.0 1011123
06:00+20e49185 0.0 1012173
09:00+25e611145 0.0 1013415
12:00+33ese6695 0.0 10111382
15:00+35ese44838 0.0 10082301
18:00+32ese331024 0.0 100922
21:00+27ene33145 0.0 101134
29 january, sat
sat2900:00+25ene481615 0.0 1012121
03:00+22e413183 0.0 1011264
06:00+21e514205 0.0 1012268
09:00+26e712160 0.0 1014498
12:00+33e67104 0.0 10131398
15:00+35ene6592 0.0 10102315
18:00+32ne46105 0.0 1011111
21:00+27ne48131 0.0 1014124
30 january, sun
sun3000:00+25ene514140 0.0 1014310
03:00+23ene515150 0.0 1013347
06:00+21ene415172 0.0 1013335
09:00+26e814120 0.0 1015659
12:00+33e8980 0.0 10131570
15:00+35e6760 0.0 10092172
18:00+32e4880 0.0 1010155
21:00+27ene46110 0.0 101390
31 january, mon
mon3100:00+24ene412120 0.0 1013232
03:00+22e516120 0.0 1012343
06:00+20ene414153 0.0 1013301
09:00+25ene814115 0.0 1015596
12:00+32ene91070 0.0 10131569
15:00+35ene7970 0.0 10092244
18:00+32ene5985 0.0 1010227
21:00+26ene4111220 0.0 1012197
1 february, tue
tue100:00+24ene414150 0.0 1013310
03:00+22ene414160 0.0 1012290
06:00+20ene412170 0.0 1013236
09:00+25ene7121116 0.0 1015554
12:00+32ene78859 0.0 10131523
15:00+34ene67720 0.0 10092171
18:00+31ne5876 0.0 1011207
21:00+25ne411105 0.0 1014198